GW5802 Weather Reports


time (UTC)temp
F
wind
direction
speed
knots
gust
knots
rain 1hr
in
rain 24hr
in
rain mn
in
humidity
%
barometer
mb
20260507020900 68 321 0.9 0.9 0.00 0.00 0.00 78 1009.4
20260507020357 68 180 0.9 0.9 0.00 0.00 0.00 78 1009.5
20260507015854 68 244 2.6 2.6 0.00 0.00 0.00 78 1009.7
20260507015352 68 266 2.6 3.5 0.00 0.00 0.00 78 1009.8
20260507014849 68 247 0.0 1.7 0.00 0.00 0.00 78 1009.7
20260507014345 68 236 1.7 2.6 0.00 0.00 0.00 78 1009.6
20260507013841 68 358 0.0 0.9 0.00 0.00 0.00 78 1009.7
20260507013339 67 304 1.7 1.7 0.00 0.00 0.00 79 1009.6
20260507012836 67 336 0.0 0.9 0.00 0.00 0.00 79 1009.5
20260507012332 67 347 0.0 0.0 0.00 0.00 0.00 78 1009.5
20260507011829 67 5 0.0 0.0 0.00 0.00 0.00 78 1009.3
20260507011326 68 346 0.0 0.0 0.00 0.00 0.00 78 1009.7
20260507010825 68 347 0.0 0.9 0.00 0.00 0.00 77 1009.7
20260507010321 68 340 0.0 0.0 0.00 0.00 0.00 77 1009.7
20260507005819 68 342 0.0 0.9 0.00 0.00 0.00 76 1009.7
20260507005316 68 348 0.0 0.9 0.00 0.00 0.00 75 1009.4
20260507004812 69 332 0.0 0.9 0.00 0.00 0.00 75 1009.4
20260507004309 69 328 0.9 1.7 0.00 0.00 0.00 74 1009.4
20260507003806 69 208 0.9 1.7 0.00 0.00 0.00 74 1009.3
20260507003301 69 207 1.7 2.6 0.00 0.00 0.00 74 1009.3
20260507002757 69 264 2.6 3.5 0.00 0.00 0.00 73 1009.4
20260507002253 69 256 3.5 3.5 0.00 0.00 0.00 73 1009.0
20260507001750 70 273 1.7 1.7 0.00 0.00 0.00 73 1008.9
20260507001248 70 318 0.9 3.5 0.00 0.00 0.00 72 1009.3
20260507000744 70 304 3.5 7.0 0.00 0.00 0.00 72 1008.9
20260507000240 70 234 0.9 2.6 0.00 0.00 0.00 72 1009.0
20260506235737 70 8 1.7 2.6 0.00 0.00 0.00 72 1009.0
20260506235232 70 322 0.9 0.9 0.00 0.00 0.00 71 1008.9
20260506234729 71 307 0.9 2.6 0.00 0.00 0.00 71 1009.1
20260506234226 71 232 2.6 3.5 0.00 0.00 0.00 70 1008.9
20260506233724 71 252 3.5 5.2 0.00 0.00 0.00 70 1009.0
20260506233220 71 269 2.6 3.5 0.00 0.00 0.00 70 1008.9
20260506232717 71 314 1.7 2.6 0.00 0.00 0.00 69 1009.0
20260506232212 71 279 0.9 5.2 0.00 0.00 0.00 69 1008.6
20260506231709 71 238 4.3 7.8 0.00 0.00 0.00 69 1008.9
20260506231208 71 281 0.9 3.5 0.00 0.00 0.00 69 1008.9
20260506230704 72 198 3.5 5.2 0.00 0.00 0.00 68 1008.9
20260506230201 72 242 2.6 11.3 0.00 0.00 0.00 68 1009.0
20260506225657 72 256 1.7 3.5 0.00 0.00 0.00 68 1009.0
20260506225154 72 236 1.7 6.1 0.00 0.00 0.00 68 1008.9
20260506224651 72 233 1.7 6.1 0.00 0.00 0.00 67 1009.0
20260506224147 72 279 3.5 5.2 0.00 0.00 0.00 67 1008.8
20260506223644 72 291 3.5 11.3 0.00 0.00 0.00 67 1008.8
20260506223140 72 237 5.2 7.8 0.00 0.00 0.00 67 1008.9
20260506222637 72 238 3.5 8.7 0.00 0.00 0.00 67 1008.8
20260506222133 72 331 1.7 9.6 0.00 0.00 0.00 67 1008.9
20260506221631 72 251 3.5 6.1 0.00 0.00 0.00 67 1008.9
20260506221129 72 141 3.5 8.7 0.00 0.00 0.00 67 1009.1
20260506220625 72 210 2.6 6.1 0.00 0.00 0.00 67 1008.6
20260506220120 72 262 1.7 7.0 0.00 0.00 0.00 67 1008.7
20260506215617 72 192 3.5 8.7 0.00 0.00 0.00 67 1008.7
20260506215113 72 262 6.1 11.3 0.00 0.00 0.00 67 1008.9
20260506214610 72 237 3.5 9.6 0.00 0.00 0.00 67 1008.7
20260506214107 72 224 2.6 13.9 0.00 0.00 0.00 67 1008.5
20260506213605 72 219 6.1 7.8 0.00 0.00 0.00 68 1008.5
20260506213102 72 190 3.5 16.5 0.00 0.00 0.00 68 1008.5
20260506212559 72 152 3.5 7.0 0.00 0.00 0.00 68 1008.6
20260506212054 72 175 6.1 15.6 0.00 0.00 0.00 68 1008.6
20260506211550 72 186 6.1 8.7 0.00 0.00 0.00 68 1008.7
20260506211047 71 249 7.8 12.2 0.00 0.00 0.00 68 1008.4
20260506210544 71 248 9.6 14.8 0.00 0.00 0.00 68 1008.3
20260506210040 71 224 4.3 8.7 0.00 0.00 0.00 69 1008.5
20260506205537 71 195 7.8 12.2 0.00 0.00 0.00 68 1008.5
20260506205032 71 185 6.1 8.7 0.00 0.00 0.00 69 1008.6
20260506204531 71 242 5.2 8.7 0.00 0.00 0.00 69 1008.6
20260506204027 71 234 8.7 13.9 0.00 0.00 0.00 69 1008.6
20260506203526 71 201 2.6 8.7 0.00 0.00 0.00 69 1008.1
20260506203022 72 235 6.1 15.6 0.00 0.00 0.00 68 1008.2
20260506202519 72 221 7.8 12.2 0.00 0.00 0.00 68 1008.3
20260506202015 72 212 2.6 9.6 0.00 0.00 0.00 68 1008.3
20260506201514 72 202 3.5 7.0 0.00 0.00 0.00 68 1008.4
20260506201010 72 207 3.5 9.6 0.00 0.00 0.00 67 1008.9
20260506200506 72 244 5.2 13.0 0.00 0.00 0.00 67 1008.9
20260506200003 72 175 5.2 11.3 0.00 0.00 0.00 67 1009.0
20260506195500 72 238 6.1 8.7 0.00 0.00 0.00 67 1009.2
20260506194956 73 214 6.1 15.6 0.00 0.00 0.00 66 1009.2
20260506194454 73 201 5.2 13.0 0.00 0.00 0.00 66 1008.6
20260506193950 73 214 6.1 8.7 0.00 0.00 0.00 66 1008.5
20260506193448 73 236 3.5 7.0 0.00 0.00 0.00 66 1008.5
20260506192944 72 260 3.5 11.3 0.00 0.00 0.00 67 1008.9
20260506192441 72 198 8.7 12.2 0.00 0.00 0.00 67 1009.0
20260506191937 72 259 4.3 8.7 0.00 0.00 0.00 67 1009.0
20260506191434 72 177 5.2 15.6 0.00 0.00 0.00 67 1009.2
20260506190931 73 212 7.0 19.1 0.00 0.00 0.00 66 1009.4
20260506190427 72 288 5.2 11.3 0.00 0.00 0.00 67 1009.5
20260506185924 72 264 7.8 12.2 0.00 0.00 0.00 67 1009.5
20260506185422 71 222 4.3 9.6 0.00 0.00 0.00 68 1009.3
20260506184919 71 197 10.4 15.6 0.00 0.00 0.00 68 1009.4
20260506184416 71 252 6.1 8.7 0.00 0.00 0.00 69 1009.6
20260506183913 71 190 7.0 13.9 0.00 0.00 0.00 69 1009.7
20260506183408 71 237 4.3 12.2 0.00 0.00 0.00 71 1009.7
20260506182905 70 246 4.3 11.3 0.00 0.00 0.00 71 1009.6
20260506182403 70 264 3.5 7.8 0.00 0.00 0.00 72 1009.9
20260506181900 70 252 11.3 14.8 0.00 0.00 0.00 72 1009.9
20260506181358 69 215 3.5 12.2 0.00 0.00 0.00 73 1010.1
20260506180855 69 184 2.6 9.6 0.00 0.00 0.00 74 1010.0
20260506180350 69 249 7.8 13.0 0.00 0.00 0.00 73 1010.2
20260506175847 69 213 7.8 11.3 0.00 0.00 0.00 74 1010.2
20260506175344 69 213 4.3 7.8 0.00 0.00 0.00 74 1010.2
20260506174841 69 232 4.3 9.6 0.00 0.00 0.00 74 1010.0
20260506174338 69 251 4.3 7.0 0.00 0.00 0.00 73 1010.0
20260506173836 70 240 7.8 15.6 0.00 0.00 0.00 72 1010.1
20260506173332 70 183 4.3 9.6 0.00 0.00 0.00 72 1010.1
20260506172830 70 189 2.6 6.1 0.00 0.00 0.00 73 1010.2
20260506172326 70 166 4.3 13.0 0.00 0.00 0.00 72 1010.5
20260506171824 70 204 3.5 7.8 0.00 0.00 0.00 71 1010.7
20260506171321 70 196 4.3 7.8 0.00 0.00 0.00 72 1010.3
20260506170819 69 179 4.3 9.6 0.00 0.00 0.00 72 1010.3
20260506170314 69 245 3.5 7.0 0.00 0.00 0.00 72 1010.6
20260506165813 69 135 4.3 8.7 0.00 0.00 0.00 71 1010.7
20260506165310 69 263 4.3 8.7 0.00 0.00 0.00 69 1011.0
20260506164807 69 194 3.5 11.3 0.00 0.00 0.00 68 1011.1
20260506164304 69 334 3.5 8.7 0.00 0.00 0.00 68 1011.2
20260506163800 70 250 7.8 19.1 0.00 0.00 0.00 68 1011.2
20260506163255 71 195 6.1 16.5 0.00 0.00 0.00 65 1011.4
20260506162752 72 183 6.1 13.0 0.00 0.00 0.00 63 1011.5
20260506162250 73 188 6.1 19.1 0.00 0.00 0.00 60 1011.6
20260506161747 73 170 3.5 8.7 0.00 0.00 0.00 60 1011.6
20260506161244 73 259 8.7 13.0 0.00 0.00 0.00 58 1011.5
20260506160741 74 243 6.1 14.8 0.00 0.00 0.00 58 1011.1
20260506160238 74 221 11.3 16.5 0.00 0.00 0.00 57 1011.4
20260506155736 75 197 5.2 7.8 0.00 0.00 0.00 57 1011.6
20260506155233 74 221 3.5 3.5 0.00 0.00 0.00 57 1011.9
20260506153340 74 200 9.6 15.6 0.00 0.00 0.00 57 1011.6
20260506152837 74 190 2.6 11.3 0.00 0.00 0.00 57 1011.6
20260506152334 74 210 5.2 14.8 0.00 0.00 0.00 57 1011.6
20260506151833 73 185 8.7 19.1 0.00 0.00 0.00 57 1011.7
20260506151329 73 264 4.3 7.0 0.00 0.00 0.00 58 1011.7
20260506150826 73 230 5.2 16.5 0.00 0.00 0.00 59 1011.6
20260506150323 73 231 5.2 9.6 0.00 0.00 0.00 59 1012.0
20260506145820 73 217 4.3 7.8 0.00 0.00 0.00 59 1011.7
20260506145316 73 187 5.2 11.3 0.00 0.00 0.00 59 1011.7
20260506144814 73 238 2.6 11.3 0.00 0.00 0.00 58 1011.9
20260506144310 74 237 6.1 9.6 0.00 0.00 0.00 58 1011.7
20260506143809 73 171 4.3 11.3 0.00 0.00 0.00 57 1011.7
20260506143305 74 237 7.8 13.9 0.00 0.00 0.00 57 1011.7
20260506142804 74 147 3.5 9.6 0.00 0.00 0.00 57 1011.9
20260506142301 73 181 3.5 13.0 0.00 0.00 0.00 59 1011.7
20260506141759 73 202 7.0 12.2 0.00 0.00 0.00 58 1011.6
20260506141257 74 214 8.7 13.9 0.00 0.00 0.00 56 1011.9
20260506140755 74 187 8.7 13.9 0.00 0.00 0.00 57 1011.9
20260506140251 74 218 5.2 14.8 0.00 0.00 0.00 58 1011.6
20260506135749 73 259 7.0 11.3 0.00 0.00 0.00 59 1011.5
20260506135245 73 258 6.1 11.3 0.00 0.00 0.00 59 1011.8
20260506134742 72 159 4.3 7.8 0.00 0.00 0.00 60 1011.7
20260506134238 72 170 7.8 19.1 0.00 0.00 0.00 60 1011.9
20260506133735 72 176 5.2 9.6 0.00 0.00 0.00 60 1012.1
20260506133232 71 223 6.1 12.2 0.00 0.00 0.00 61 1012.1
20260506132729 72 229 4.3 14.8 0.00 0.00 0.00 61 1012.0
20260506132226 71 245 6.1 12.2 0.00 0.00 0.00 61 1012.1
20260506131724 71 183 4.3 11.3 0.00 0.00 0.00 62 1012.1
20260506131219 71 194 9.6 14.8 0.00 0.00 0.00 61 1012.1
20260506130717 71 200 4.3 7.0 0.00 0.00 0.00 61 1012.1
20260506130214 70 261 3.5 7.8 0.00 0.00 0.00 64 1012.1
20260506125712 69 238 3.5 8.7 0.00 0.00 0.00 65 1012.3
20260506125209 68 267 1.7 6.1 0.00 0.00 0.00 66 1012.3
20260506124707 68 281 4.3 6.1 0.00 0.00 0.00 67 1012.3
20260506124205 68 250 4.3 7.0 0.00 0.00 0.00 68 1012.4
20260506123702 68 197 3.5 3.5 0.00 0.00 0.00 68 1012.4
20260506123201 68 175 0.9 2.6 0.00 0.00 0.00 69 1012.4
20260506122657 68 210 2.6 5.2 0.00 0.00 0.00 69 1012.3
20260506122155 68 213 6.1 12.2 0.00 0.00 0.00 69 1012.3
20260506121652 68 205 3.5 7.0 0.00 0.00 0.00 68 1012.1
20260506121148 68 193 2.6 5.2 0.00 0.00 0.00 69 1012.3
20260506120647 67 247 4.3 6.1 0.00 0.00 0.00 70 1012.3
20260506120143 66 190 4.3 7.8 0.00 0.00 0.00 71 1012.2
20260506115642 66 173 2.6 6.1 0.00 0.00 0.00 72 1012.3
20260506115140 65 297 1.7 5.2 0.00 0.00 0.00 73 1012.1
20260506114637 65 86 1.7 7.8 0.00 0.00 0.00 73 1012.4
20260506114135 65 198 3.5 5.2 0.00 0.00 0.00 73 1012.3
20260506113633 65 173 2.6 6.1 0.00 0.00 0.00 73 1012.2
20260506113130 65 213 2.6 7.0 0.00 0.00 0.00 73 1012.3
20260506112626 65 160 1.7 7.0 0.00 0.00 0.00 73 1012.1
20260506112124 65 158 1.7 9.6 0.00 0.00 0.00 72 1012.2
20260506111621 65 246 4.3 8.7 0.00 0.00 0.00 72 1011.9
20260506111119 65 227 2.6 6.1 0.00 0.00 0.00 73 1012.0
20260506110616 64 197 5.2 7.0 0.00 0.00 0.00 74 1012.1
20260506110113 64 206 2.6 6.1 0.00 0.00 0.00 74 1012.3
20260506105609 64 208 3.5 6.1 0.00 0.00 0.00 75 1012.2
20260506105107 63 49 2.6 7.0 0.00 0.00 0.00 75 1012.2
20260506104605 63 185 4.3 7.0 0.00 0.00 0.00 76 1012.3
20260506104102 63 171 2.6 3.5 0.00 0.00 0.00 76 1012.4
20260506103559 63 52 2.6 5.2 0.00 0.00 0.00 76 1012.5
20260506103056 62 225 2.6 7.8 0.00 0.00 0.00 77 1012.5
20260506102554 62 246 2.6 7.0 0.00 0.00 0.00 77 1012.5
20260506102051 62 264 3.5 6.1 0.00 0.00 0.00 78 1012.4
20260506101548 62 180 2.6 3.5 0.00 0.00 0.00 78 1012.7
20260506101045 62 184 3.5 5.2 0.00 0.00 0.00 78 1012.2
20260506100543 62 328 1.7 2.6 0.00 0.00 0.00 78 1012.2
20260506100041 62 173 0.9 7.0 0.00 0.00 0.00 78 1012.1
20260506095540 62 235 2.6 6.1 0.00 0.00 0.00 78 1012.1
20260506095035 62 234 0.9 5.2 0.00 0.00 0.00 78 1012.0
20260506094533 62 191 0.9 3.5 0.00 0.00 0.00 78 1012.2
20260506094031 62 204 0.9 3.5 0.00 0.00 0.00 78 1012.3
20260506093529 62 329 1.7 2.6 0.00 0.00 0.00 78 1012.3
20260506093026 62 199 3.5 3.5 0.00 0.00 0.00 78 1012.4
20260506092524 62 205 1.7 3.5 0.00 0.00 0.00 78 1012.4
20260506092020 62 158 0.9 5.2 0.00 0.00 0.00 78 1012.1
20260506091519 62 199 2.6 5.2 0.00 0.00 0.00 78 1012.0
20260506091016 62 116 1.7 3.5 0.00 0.00 0.00 78 1012.3
20260506090514 62 238 2.6 3.5 0.00 0.00 0.00 78 1012.2
20260506090010 62 278 0.0 1.7 0.00 0.00 0.00 78 1012.4
20260506085507 62 319 0.9 5.2 0.00 0.00 0.00 78 1012.2
20260506085003 62 351 1.7 3.5 0.00 0.00 0.00 78 1012.2
20260506084500 62 237 1.7 6.1 0.00 0.00 0.00 78 1012.4
20260506083956 62 232 3.5 6.1 0.00 0.00 0.00 79 1012.5
20260506083453 62 2 0.9 2.6 0.00 0.00 0.00 78 1012.4
20260506082950 62 36 0.9 2.6 0.00 0.00 0.00 78 1012.4
20260506082448 62 198 2.6 5.2 0.00 0.00 0.00 79 1012.5
20260506081943 62 245 2.6 5.2 0.00 0.00 0.00 79 1012.4
20260506081442 62 220 2.6 3.5 0.00 0.00 0.00 78 1012.5
20260506080939 62 184 1.7 3.5 0.00 0.00 0.00 78 1012.6
20260506080436 63 170 3.5 5.2 0.00 0.00 0.00 78 1012.5
20260506073420 63 201 2.6 5.2 0.00 0.00 0.00 77 1012.4
20260506072917 63 204 2.6 3.5 0.00 0.00 0.00 77 1012.3
20260506072414 63 263 3.5 5.2 0.00 0.00 0.00 77 1012.3
20260506071912 64 277 3.5 6.1 0.00 0.00 0.00 76 1012.3
20260506071410 64 346 1.7 1.7 0.00 0.00 0.00 76 1012.1
20260506070906 64 182 1.7 7.0 0.00 0.00 0.00 76 1012.5
20260506070403 64 181 1.7 6.1 0.00 0.00 0.00 76 1012.2
20260506062340 65 231 3.5 9.6 0.00 0.00 0.00 74 1012.5
20260506061836 65 233 1.7 9.6 0.00 0.00 0.00 74 1012.6
20260506061333 65 310 1.7 13.0 0.00 0.00 0.00 74 1012.5
20260506060831 65 235 1.7 6.1 0.00 0.00 0.00 74 1012.5
20260506060329 65 152 2.6 6.1 0.00 0.00 0.00 74 1012.6
20260506051300 66 165 2.6 5.2 0.00 0.00 0.00 74 1013.0
20260506050758 66 167 1.7 3.5 0.00 0.00 0.00 73 1012.9
20260506050256 66 201 1.7 5.2 0.00 0.00 0.00 74 1013.1
20260506044746 66 316 0.9 5.2 0.00 0.00 0.00 73 1013.1
20260506044243 66 65 2.6 5.2 0.00 0.00 0.00 73 1013.0
20260506043741 66 145 2.6 7.0 0.00 0.00 0.00 73 1013.2
20260506043238 66 251 2.6 6.1 0.00 0.00 0.00 73 1013.0
20260506042737 66 202 1.7 3.5 0.00 0.00 0.00 73 1013.1
20260506042235 66 202 4.3 6.1 0.00 0.00 0.00 72 1012.9
20260506041733 66 198 4.3 9.6 0.00 0.00 0.00 72 1013.0
20260506041230 66 285 3.5 8.7 0.00 0.00 0.00 72 1012.9
20260506040727 66 134 5.2 7.8 0.00 0.00 0.00 72 1012.8
20260506040224 66 316 1.7 3.5 0.00 0.00 0.00 72 1013.0
20260506035721 67 211 2.6 9.6 0.00 0.00 0.00 72 1012.9
20260506035218 67 220 3.5 7.8 0.00 0.00 0.00 71 1012.9
20260506034714 67 129 4.3 5.2 0.00 0.00 0.00 71 1013.1
20260506034212 67 257 2.6 7.0 0.00 0.00 0.00 71 1012.9
20260506033709 67 226 4.3 7.0 0.00 0.00 0.00 71 1013.3
20260506033206 67 187 5.2 8.7 0.00 0.00 0.00 71 1013.0
20260506032703 67 185 3.5 5.2 0.00 0.00 0.00 70 1013.0
20260506032200 67 204 3.5 6.1 0.00 0.00 0.00 70 1013.1
20260506031656 68 274 2.6 11.3 0.00 0.00 0.00 70 1012.9
20260506031154 67 240 3.5 7.8 0.00 0.00 0.00 70 1013.0
20260506030652 67 207 3.5 7.8 0.00 0.00 0.00 70 1013.0
20260506030149 68 249 4.3 7.0 0.00 0.00 0.00 70 1013.1
20260506025646 68 179 2.6 2.6 0.00 0.00 0.00 69 1012.9
20260506025142 68 220 4.3 8.7 0.00 0.00 0.00 69 1013.1
20260506024640 68 30 0.9 5.2 0.00 0.00 0.00 69 1013.1
20260506024136 68 186 3.5 11.3 0.00 0.00 0.00 69 1013.1
20260506023632 68 111 5.2 14.8 0.00 0.00 0.00 69 1013.0
20260506023129 68 201 2.6 9.6 0.00 0.00 0.00 69 1013.0
20260506022627 68 247 4.3 9.6 0.00 0.00 0.00 69 1013.4
20260506022124 68 212 2.6 9.6 0.00 0.00 0.00 68 1013.0
20260506021621 68 233 4.3 8.7 0.00 0.00 0.00 68 1013.2